Location: Kapuskasing
(49.3803°N, 82.4001°W)
Time: 10:37:08
(UTC-04:00)

Envisat - Pass Details

Date: 13 March 2026
Orbit: 761 x 762 km, 98.4° (Epoch: 19 April)

Event Time Altitude Azimuth Distance (km) Brightness Sun altitude
Rises 03:20:36 0° 23° (NNE) 3,237 7.1 -38.7°
Reaches altitude 10° 03:23:14 10° 34° (NE) 2,306 6.2 -38.5°
Enters shadow 03:25:28 21° 55° (NE) 1,657 5.2 -38.3°
